Lid_Strength_Index
3 3 3 3 3 3 2 2 2 2 2 3 3 2 2 2 2 4 8 6 5 -2 -1 1 2 3 3 5 4 4 12 14 12 12 11 7 9 6 5 6 5 5 5 4 2
3 3 3 3 3 2 3 2 2 3 3 3 3 3 2 2 5 7 3 1 -0 -2 3 3 6 5 7 6 6 8 12 12 9 8 9 8 8 7 7 7 7 6 4 3 3
4 3 3 3 3 2 3 2 2 3 3 3 3 3 2 3 6 5 -0 -1 -2 -1 6 4 4 6 10 7 7 8 11 9 8 7 7 8 8 6 8 9 7 7 6 4 4
3 3 3 3 3 3 3 3 3 3 3 3 2 3 2 5 11 3 -2 -2 -2 2 6 7 6 8 9 9 7 10 7 7 7 6 7 8 7 8 7 7 5 4 4 4 4
4 4 4 3 3 3 3 3 3 3 3 3 2 2 6 8 9 1 -2 -1 0 5 7 7 6 8 9 8 7 9 8 6 6 6 7 6 8 8 7 5 4 4 4 4 4
3 3 3 3 4 3 3 4 4 4 3 3 1 2 8 11 3 -0 0 1 1 5 6 5 5 5 7 8 8 6 7 7 7 8 7 8 8 7 7 5 5 5 5 4 4
3 3 3 3 3 3 4 4 4 4 4 2 1 3 6 9 2 -0 0 2 3 4 7 7 5 5 6 8 6 7 9 8 9 8 8 7 10 10 6 5 6 5 5 4 4
3 3 3 3 3 3 3 4 5 4 4 3 0 4 7 2 1 1 1 2 2 4 6 6 6 7 7 6 8 10 13 14 10 8 8 8 13 9 6 7 7 6 5 5 4
3 3 3 3 3 3 4 4 3 3 3 1 6 6 7 1 3 4 1 4 3 4 5 4 6 9 9 11 13 12 15 13 11 8 9 10 13 8 6 7 7 7 6 5 5
3 3 3 3 3 4 4 4 3 2 2 3 3 8 6 6 7 6 4 3 4 5 5 7 10 12 13 13 16 14 13 15 13 10 10 11 12 9 7 7 7 7 6 5 5
3 3 3 3 3 4 6 9 10 10 6 10 10 8 7 5 7 7 6 4 5 6 9 9 13 15 13 11 10 11 12 13 12 9 11 12 11 10 8 8 8 7 7 6 5
3 3 2 3 3 4 6 10 9 9 11 7 7 7 6 6 9 8 6 8 7 9 8 9 13 11 8 9 10 10 11 12 12 10 11 10 12 10 9 8 7 7 7 6 5
2 2 2 3 3 5 8 8 6 8 12 10 8 9 9 7 10 10 8 8 8 9 9 11 10 8 8 9 10 12 12 12 12 11 11 12 13 12 9 8 7 7 6 6 5
2 2 2 3 6 7 7 6 6 8 15 12 11 9 9 10 12 8 6 8 9 9 9 10 8 8 9 10 10 14 9 10 11 13 15 12 18 13 11 10 9 8 7 6 5
1 2 2 4 8 7 5 5 7 9 18 9 11 8 10 12 11 10 8 10 11 11 10 10 10 10 10 9 9 10 8 10 11 13 15 13 16 14 11 12 10 8 7 6 5
2 2 3 6 8 6 5 6 8 14 17 12 10 11 12 12 11 10 10 9 10 12 12 12 10 10 9 7 7 7 10 12 14 15 17 15 15 15 14 12 10 8 7 6 5
3 4 4 4 8 6 6 8 15 17 10 12 13 12 13 13 12 12 12 14 15 17 18 13 12 11 9 11 10 11 14 17 18 18 18 16 15 14 11 9 9 9 7 6 5
3 4 5 4 6 5 8 11 16 12 12 10 11 12 13 12 13 11 14 15 13 15 17 18 17 13 10 12 12 13 13 17 19 19 17 15 16 13 9 7 7 7 6 6 5
4 5 6 5 4 7 9 14 15 13 10 11 11 13 13 11 12 12 13 14 13 14 18 18 16 11 10 11 11 13 14 13 16 17 16 16 13 11 8 8 7 8 7 7 6
6 6 5 3 5 8 10 12 12 9 9 10 13 12 14 12 12 13 14 11 12 11 14 16 17 14 11 11 11 13 11 15 16 19 19 16 15 15 11 10 9 9 8 7 6
6 8 6 6 6 9 13 13 10 8 8 11 12 13 13 13 12 13 13 11 10 11 12 15 16 15 13 14 15 15 16 17 16 16 18 18 16 10 10 10 10 8 7 7 6
7 10 4 6 10 12 14 11 8 10 9 9 10 11 12 12 13 12 12 11 8 10 12 13 16 16 15 12 11 12 16 18 18 18 17 16 15 10 9 9 10 8 7 6 6
8 8 5 6 12 13 11 9 8 9 10 10 11 10 11 13 14 12 10 8 7 8 11 11 16 18 17 15 13 14 14 16 18 19 20 19 17 11 11 11 10 7 7 6 6
9 11 8 9 10 11 12 11 10 7 8 8 10 10 12 13 13 13 12 9 8 8 5 10 16 17 18 17 15 15 14 14 17 19 19 18 17 14 13 12 12 10 8 6 6
9 11 10 13 11 11 10 10 10 11 9 9 10 10 13 14 14 14 12 11 9 8 9 12 16 15 15 13 13 14 13 13 15 16 18 16 16 14 13 13 11 10 8 8 9
9 9 9 11 11 11 11 12 10 10 10 10 11 10 11 13 13 15 13 13 14 11 13 12 15 14 14 12 12 14 13 13 13 13 13 14 15 13 12 11 10 9 9 10 10
6 6 8 9 10 11 11 10 9 9 8 8 9 11 11 10 9 9 10 11 12 14 14 14 15 16 18 13 13 16 13 13 13 13 13 15 14 10 11 11 10 11 10 11 10